Regional Weather Roundup
Issued by NWS Sioux Falls, SD

Home | Current Version | Previous Version | Text Only | Print | Product List | Glossary Off
Versions: 1 2 3 4 5 6 7 8 9 10 11 12 13 14 15 16 17 18 19 20 21 22 23 24 25 26 27 28 29 30 31 32 33 34 35 36 37 38 39 40 41 42 43 44 45 46 47 48 49 50

000
ASUS43 KFSD 231910
RWRFSD

WEATHER ROUNDUP FOR SE SOUTH DAKOTA/SW MINNESOTA/NW IOWA
NATIONAL WEATHER SERVICE SIOUX FALLS SD
200 PM CDT FRI JUN 23 2017

NOTE: "FAIR" INDICATES FEW OR NO CLOUDS BELOW 12,000 FEET WITH NO
SIGNIFICANT WEATHER AND OR OBSTRUCTIONS TO VISIBILITY.


SDZ038>040-050-052>070-232000-
SOUTHEAST SOUTH DAKOTA

CITY           SKY/WX    TMP DP  RH WIND       PRES   REMARKS
BROOKINGS      CLOUDY    61  49  64 NW21      29.98F
CHAMBERLAIN    SUNNY     69  39  33 NW24G33   30.07S
HURON          PTSUNNY   67  46  47 N18G28    30.01F
MADISON        CLOUDY    61  50  67 NW23G31   30.00S
MITCHELL       CLOUDY    68  45  43 NW21G36   30.03S
SIOUX FALLS    CLOUDY    66  52  60 NW24G32   29.98F
WINNER         FAIR      72  39  30 NW20G35   30.09
YANKTON        CLOUDY    68  49  50 NW21G26   30.02F
$$

MNZ071-072-080-081-089-090-097-098-232000-
SOUTHWEST MINNESOTA

CITY           SKY/WX    TMP DP  RH WIND       PRES   REMARKS
FAIRMONT       CLOUDY    68  55  63 NW18G24   29.90
JACKSON        CLOUDY    64  50  59 NW22G32   29.93F
LUVERNE        CLOUDY    63  45  51 NW18G26   29.98S
MARSHALL       CLOUDY    65  51  60 NW25G31   29.92F
MONTEVIDEO     PTSUNNY   68  52  56 NW18G29   29.91S
PIPESTONE      CLOUDY    64  48  55 NW14G26   29.97S
REDWOOD FALLS  CLOUDY    67  51  56 NW23G33   29.89S
TRACY          CLOUDY    67  54  64 NW21G30   29.93F
WINDOM         CLOUDY    64  52  63 NW21G32   29.92F
WORTHINGTON    CLOUDY    62  51  67 NW16G26   29.96F
$$

IAZ001>003-012>014-020>022-031-032-NEZ013-014-SDZ071-232000-
NORTHWEST IOWA

CITY           SKY/WX    TMP DP  RH WIND       PRES   REMARKS
CHEROKEE       CLOUDY    67  53  60 NW18G24   29.96F
DENISON        CLOUDY    68  52  56 NW20G26   29.99F
ESTHERVILLE    PTSUNNY   65  54  67 NW25G32   29.92S
LE MARS        CLOUDY    68  52  56 NW18G28   30.00S
ORANGE CITY    CLOUDY    64  52  63 NW14G24   29.98F
SHELDON        CLOUDY    66  50  55 NW17G28   29.95F
SIOUX CITY     MOSUNNY   72  52  49 NW24G31   29.98F
SPENCER        CLOUDY    65  51  60 NW22      29.95R
STORM LAKE     CLOUDY    68  50  52 NW20G31   29.96F
$$

ABBREVIATIONS USED IN REMARKS
   TC - TEMPERATURE IN CELSIUS
  WCI - WIND CHILL INDEX
   HX - HEAT INDEX
  VSB - VISIBILITY




USA.gov is the U.S. government's official web portal to all federal, state and local government web resources and services.